Regional Weather Roundup
Issued by NWS Green Bay, WI

Home | Current Version | Previous Version | Text Only | Print | Product List | Glossary On
Versions: 1 2 3 4 5 6 7 8 9 10 11 12 13 14 15 16 17 18 19 20 21 22 23 24 25 26 27 28 29 30 31 32 33 34 35 36 37 38 39 40 41 42 43 44 45 46 47 48 49 50
006
ASUS43 KGRB 231311
RWRGRB

NORTH-CENTRAL AND NORTHEAST WISCONSIN REGIONAL WEATHER ROUNDUP
NATIONAL WEATHER SERVICE GREEN BAY WI
800 AM CDT WED AUG 23 2017

WIZ005-009-010>012-018-019-231400-
NORTH CENTRAL WISCONSIN

CITY           SKY/WX    TMP DP  RH WIND       PRES   REMARKS
IRONWOOD       CLOUDY    55  54  96 W8        30.05R
MANITOWISH WTR PTSUNNY   53  53 100 NW6       30.04R
ARBOR VITAE    PTSUNNY   57  55  93 NW6       30.04R
EAGLE RIVER    CLOUDY    55  53  94 NW6       30.02S
LAND O LAKES   CLOUDY    54  51  90 NW3       30.04R
RHINELANDER    MOSUNNY   55  54  96 W7        30.04R
PHILLIPS       CLOUDY    51  51 100 W3        30.06R FOG
ANTIGO         CLOUDY    53  53  99 NW9       30.04R
TOMAHAWK         N/A     52  51  97 NW3       30.06R
MERRILL        CLOUDY    52  52 100 NW6       30.06R
$$

WIZ013-073-231400-
NORTHEAST WISCONSIN

CITY           SKY/WX    TMP DP  RH WIND       PRES   REMARKS
IRON MOUNTAIN  SUNNY     56  50  80 NW13      29.99R
MARINETTE      SUNNY     57  53  86 NW7       29.99R
OCONTO         SUNNY     57  53  84 NW6       30.00R
$$

WIZ017-030-035>037-045-231400-
CENTRAL WISCONSIN

CITY           SKY/WX    TMP DP  RH WIND       PRES   REMARKS
MEDFORD        SUNNY     52  50  95 NW3       30.06R
WAUSAU         SUNNY     55  51  86 NW7       30.04R
MOSINEE        MOSUNNY   55  54  94 NW6       30.06R
MARSHFIELD     SUNNY     56  51  84 NW8       30.05R
WISC RAPIDS    SUNNY     57  52  83 NW7       30.07R
STEVENS POINT  SUNNY     54  51  91 NW6       30.05R
WAUPACA        SUNNY     60  53  78 NW5       30.03S
SHAWANO        SUNNY     58  53  84 NW5       30.01R
CLINTONVILLE   SUNNY     55  52  88 NW7       30.02R
WAUTOMA        SUNNY     58  52  80 W7        30.05R
$$

WIZ038-039-048-051-231400-
FOX VALLEY

CITY           SKY/WX    TMP DP  RH WIND       PRES   REMARKS
NWS GREEN BAY  SUNNY     58  55  90 NW10      30.00R
APPLETON       SUNNY     55  54  94 W8        30.00R
OSHKOSH        SUNNY     57  51  80 W8        30.02R
FOND DU LAC    SUNNY     59  51  75 W8        30.03R
$$

WIZ022-050-052-231400-
EAST CENTRAL WISCONSIN

CITY           SKY/WX    TMP DP  RH WIND       PRES   REMARKS
EPHRAIM        FAIR      58  53  82 NW8       29.97R
WASHINGTON ISL FAIR      58  52  79 NW10G17   29.96R
STURGEON BAY   MOSUNNY   60  55  83 NW12      29.99R
MANITOWOC      SUNNY     59  52  77 NW9       30.01R
SHEBOYGAN      SUNNY     60  56  86 NW7       30.01R
$$

LMZ563-521-522-541>543-231400-
LAKESHORE

STATION/POSITION TIME  TEMP    WIND        PRES    VSBY  WAVE
                       AIR SEA DIR/SP/G                  HT/PER
                 (UTC) (F)     (DEG/KT/KT) (MB)    (MI)  (FT/S)
SHEBOYGAN LKSHOR 1300   60     300/ 10/ 12 1015.9R
KEWAUNEE LKSHORE 1248   59     310/  5/  8 1014.5R
NORTHPORT PIER   1240   62     320/ 17/ 22 1014.6R
N MID LAKE BUOY  1250   60 66  310/ 16/ 19 1014.5R         3/ 4
S GREEN BAY BUOY 1300   60 70  300/ 14/ 17 1015.4
SISTER BAY LKSHO 1303   63     320/ 17/ 20   N/A
MENOMINEE LKSHOR 1248   58     290/  6/ 10 1015.0R
$$




USA.gov is the U.S. government's official web portal to all federal, state and local government web resources and services.